[[{"header":{"parameterUnit":"m.s-1","parameterCategory":1,"la1":30.2991,"la2":30.254,"lo1":-89.0895,"lo2":-89.0444,"dy":0.0017,"dx":0.0017,"nx":28,"ny":28,"refTime":"2025-04-01T21:00:00:Z","depth":0,"parameterNumber":2,"parameterNumberName":"U-component_of_WINDS"},"data":[0,0,0,0,0,0,0,0,0,0,0,0,0,0,0,0,0,0,0,0,0,0,0,0,0,0,0,0,0,0,0,0,0,0,0,0,0,0,0,0,0,0,0,0,0,0,0,0,0,0,0,0,0,0,0,0,0,0,-3.8267,-3.8269,0,-3.8416,-3.8418,-3.842,-3.8441,-3.8439,-3.8438,-3.8436,-3.8589,-3.8594,-3.8599,0,0,0,0,0,0,0,0,0,0,0,0,0,-3.7999,-3.8004,-3.8267,-3.8269,-3.8271,-3.8416,-3.8418,-3.842,-3.8441,-3.8439,-3.8437,-3.8436,-3.8587,-3.8594,-3.86,0,0,0,0,0,0,0,0,0,0,0,0,0,-3.8129,-3.8006,-3.8266,-3.8298,-3.8303,-3.8416,-3.8418,-3.8421,-3.8441,-3.8439,-3.8437,-3.8435,-3.8585,-3.8593,-3.8601,-3.8692,0,0,-3.8625,-3.8629,0,0,0,0,0,0,0,0,-3.8121,-3.8139,-3.8292,-3.8296,-3.8301,-3.8408,-3.838,-3.8512,-3.8442,-3.8389,-3.8436,-3.8434,-3.853,-3.8543,-3.8575,-3.8699,-3.8706,-3.8626,-3.8631,-3.8634,-3.8637,0,0,0,0,0,0,0,-3.8113,-3.8132,-3.8326,-3.8294,-3.83,-3.8305,-3.8321,-3.8405,-3.8469,-3.8393,-3.8395,-3.8412,-3.8533,-3.8568,-3.8579,-3.8708,-3.8626,-3.8633,-3.8638,-3.8641,-3.8915,-3.8917,0,0,0,0,0,0,-3.8098,-3.8125,-3.8321,-3.833,-3.8205,-3.8312,-3.833,-3.8376,-3.8468,-3.8481,-3.8414,-3.8413,-3.8555,-3.857,-3.8584,-3.8697,-3.8634,-3.8642,-3.8647,-3.8913,-3.8916,-3.8918,0,0,0,0,0,0,-3.8092,-3.8115,-3.8315,-3.8228,-3.8254,-3.8319,-3.837,-3.838,-3.8415,-3.8484,-3.8496,-3.8438,-3.8554,-3.8573,-3.8665,-3.8703,-3.8646,-3.8653,-3.891,-3.8914,-3.8917,-3.8923,0,0,0,0,0,0,-3.8084,-3.8113,-3.8148,-3.8229,-3.8259,-3.8393,-3.8372,-3.8384,-3.8429,-3.8428,-3.851,-3.8521,-3.8554,-3.8653,-3.8673,-3.8713,-3.8659,-3.8907,-3.8912,-3.8916,-3.892,-3.8927,-3.8933,0,0,0,0,0,-3.8075,-3.8144,-3.815,-3.8173,-3.8304,-3.8395,-3.8413,-3.8449,-3.8432,-3.8467,-3.8512,-3.8519,-3.8696,-3.8663,-3.8685,-3.8728,-3.8904,-3.891,-3.8916,-3.8917,-3.8926,-3.8933,0,0,0,0,0,0,-3.8065,-3.8155,-3.8162,-3.826,-3.832,-3.8399,-3.8445,-3.8456,-3.8522,-3.8519,-3.8561,-3.8579,-3.8669,-3.8708,-3.8669,-3.8821,-3.8799,-3.8809,-3.8792,-3.8801,-3.8807,-3.8795,-3.8666,0,0,0,0,0,-3.8074,-3.8141,-3.8216,-3.8295,-3.8325,-3.838,-3.8421,-3.8444,-3.8508,-3.8533,-3.8585,-3.8646,-3.8716,-3.8761,-3.8829,-3.8927,-3.8944,-3.8967,-3.8974,-3.8978,-3.8986,-3.9041,-3.9052,-3.8937,-3.8936,-3.8936,0,0,-3.8094,-3.8151,-3.8191,-3.8294,-3.8344,-3.8412,-3.8401,-3.8473,-3.8524,-3.8544,-3.8634,-3.8674,-3.8746,-3.8841,-3.8886,-3.8876,-3.9022,-3.8985,-3.8989,-3.8994,-3.9048,-3.9058,-3.9068,-3.894,-3.894,-3.8939,0,0,-3.8164,-3.8215,-3.8286,-3.8336,-3.8411,-3.8447,-3.8464,-3.8542,-3.857,-3.8661,-3.8677,-3.8739,-3.8858,-3.8908,-3.8949,-3.9041,-3.9049,-3.9062,-3.9094,-3.9147,-3.9156,-3.9164,-3.9195,-3.9206,-3.907,-3.907,-3.907,0,-3.8179,-3.8282,-3.8321,-3.8393,-3.8438,-3.846,-3.8532,-3.8579,-3.8672,-3.8702,-3.8691,-3.8841,-3.8891,-3.8998,-3.9021,-3.9054,-3.9075,-3.9052,-3.9151,-3.916,-3.9168,-3.9199,-3.9211,-3.9071,-3.9071,-3.9071,-3.9071,0,-3.8296,-3.8368,-3.8416,-3.8506,-3.8557,-3.8629,-3.8678,-3.8725,-3.8744,-3.8782,-3.8875,-3.8936,-3.9016,-3.9044,-3.9063,-3.9155,-3.9146,-3.9143,-3.912,-3.9179,-3.9209,-3.9221,-3.9072,-3.9072,-3.9072,-3.9072,0,0,-3.8362,-3.8474,-3.8491,-3.8532,-3.8617,-3.8673,-3.8746,-3.8826,-3.8865,-3.8929,-3.8991,-3.9093,-3.909,-3.9137,-3.9162,-3.9209,-3.9276,-3.9199,-3.9202,-3.921,-3.938,-3.9381,-3.9394,-3.9283,-3.9286,-3.9287,-3.9373,0,-3.8441,-3.8572,-3.861,-3.872,-3.8786,-3.8809,-3.8873,-3.8932,-3.897,-3.9032,-3.9074,-3.9145,-3.9137,-3.9165,-3.9212,-3.9258,-3.931,-3.9252,-3.934,-3.9343,-3.932,-3.9409,-3.9411,-3.9489,-3.9385,-3.9387,-3.9389,0,-3.8551,-3.8617,-3.8734,-3.8811,-3.884,-3.8897,-3.8973,-3.9033,-3.9101,-3.9125,-3.9178,-3.9199,-3.9277,-3.9252,-3.9359,-3.9319,-3.9358,-3.9386,-3.939,-3.9398,-3.9368,-3.9418,-3.9515,-3.9526,-3.9408,-3.9406,-3.9405,0,-3.8586,-3.8705,-3.879,-3.8825,-3.8917,-3.8956,-3.8997,-3.9063,-3.9108,-3.9175,-3.9205,-3.928,-3.9321,-3.9379,-3.942,-3.9398,-3.9523,-3.9502,-3.9545,-3.9544,-3.9569,-3.9566,-3.9671,-3.9596,-3.9596,-3.9596,-3.9596,0,-3.8669,-3.8739,-3.8807,-3.8859,-3.8939,-3.8982,-3.906,-3.9101,-3.916,-3.9221,-3.9246,-3.9302,-3.9354,-3.9418,-3.9451,-3.9535,-3.9553,-3.9575,-3.9582,-3.9571,-3.9568,-3.9596,-3.9591,-3.9599,-3.9598,-3.9598,-3.9597,0,-3.8721,-3.8769,-3.8863,-3.8944,-3.8965,-3.902,-3.9089,-3.9141,-3.918,-3.9257,-3.9278,-3.9339,-3.9416,-3.9463,-3.956,-3.9583,-3.9674,-3.9681,-3.9651,-3.9654,-3.9694,-3.9689,-3.9818,-3.9837,-3.9751,-3.9752,-3.9753,0,-3.877,-3.8824,-3.8911,-3.8953,-3.8994,-3.9063,-3.9109,-3.9155,-3.9202,-3.9284,-3.9326,-3.9404,-3.9469,-3.959,-3.9643,-3.9718,-3.9725,-3.9766,-3.9737,-3.9724,-3.9725,-3.972,-3.9725,-3.977,-3.977,-3.9771,-3.9772,0,-3.8851,-3.8873,-3.8939,-3.9015,-3.907,-3.9131,-3.9192,-3.9226,-3.9282,-3.9334,-3.9412,-3.9463,-3.9562,-3.9639,-3.9719,-3.976,-3.9775,-3.9781,-3.9794,-3.9783,-3.9763,-3.9773,-3.9662,-3.9777,-3.9776,-3.9776,-3.9776,-3.9776,-3.8903,-3.8952,-3.9021,-3.9094,-3.9145,-3.9202,-3.9255,-3.9301,-3.9367,-3.9451,-3.9475,-3.9556,-3.9624,-3.9732,-3.9776,-3.9841,-3.9835,-3.9855,-3.986,-3.9864,-3.9864,-3.9754,-3.9856,-3.9856,-3.9856,-3.9856,-3.9856,0,-3.8984,-3.903,-3.9097,-3.9182,-3.924,-3.925,-3.9319,-3.9366,-3.9438,-3.95,-3.9564,-3.9654,-3.9729,-3.9789,-3.9867,-3.9907,-3.9916,-3.9926,-3.9922,-3.9931,-3.9865,-3.9845,-3.9917,-3.9917,-3.9917,-3.9917,-3.9917,-3.9917,-3.9034,-3.9118,-3.9148,-3.9258,-3.9303,-3.9384,-3.9422,-3.9475,-3.9524,-3.9624,-3.9687,-3.9726,-3.9787,-3.9869,-3.9939,-3.9955,-3.9981,-3.999,-4.0007,-3.9943,-3.9936,-3.993,-3.9911,-3.9996,-3.9996,-4.0067,-4.0068,-4.0069]},{"header":{"parameterUnit":"m.s-1","parameterCategory":1,"la1":30.2991,"la2":30.254,"lo1":-89.0895,"lo2":-89.0444,"dy":0.0017,"dx":0.0017,"nx":28,"ny":28,"refTime":"2025-04-01T21:00:00:Z","depth":0,"parameterNumber":3,"parameterNumberName":"V-component_of_WINDS"},"data":[0,0,0,0,0,0,0,0,0,0,0,0,0,0,0,0,0,0,0,0,0,0,0,0,0,0,0,0,0,0,0,0,0,0,0,0,0,0,0,0,0,0,0,0,0,0,0,0,0,0,0,0,0,0,0,0,0,0,5.1413,5.1415,0,5.1537,5.1538,5.154,5.156,5.1559,5.1558,5.1557,5.1682,5.1687,5.1691,0,0,0,0,0,0,0,0,0,0,0,0,0,5.1196,5.12,5.1413,5.1415,5.1416,5.1537,5.1538,5.154,5.156,5.1559,5.1558,5.1557,5.1681,5.1686,5.1691,0,0,0,0,0,0,0,0,0,0,0,0,0,5.1302,5.1201,5.1413,5.1441,5.1445,5.1536,5.1538,5.154,5.1561,5.1559,5.1558,5.1556,5.1679,5.1686,5.1692,5.1764,0,0,5.1712,5.1715,0,0,0,0,0,0,0,0,5.1296,5.131,5.1435,5.1439,5.1444,5.1532,5.1508,5.1615,5.1561,5.1517,5.1557,5.1555,5.1633,5.1644,5.167,5.1769,5.1775,5.1712,5.1716,5.1719,5.1721,0,0,0,0,0,0,0,5.1289,5.1305,5.1462,5.1437,5.1442,5.1448,5.1461,5.1528,5.1582,5.152,5.1522,5.1537,5.1635,5.1664,5.1673,5.1777,5.1712,5.1718,5.1722,5.1724,5.1944,5.1946,0,0,0,0,0,0,5.1276,5.1299,5.1458,5.1466,5.1365,5.1453,5.1468,5.1505,5.1582,5.1592,5.1538,5.1537,5.1654,5.1666,5.1678,5.1769,5.1719,5.1725,5.1729,5.1942,5.1945,5.1947,0,0,0,0,0,0,5.1272,5.129,5.1453,5.1383,5.1404,5.1458,5.15,5.1508,5.1537,5.1595,5.1605,5.1557,5.1653,5.1669,5.1743,5.1773,5.1728,5.1734,5.194,5.1943,5.1946,5.195,0,0,0,0,0,0,5.1265,5.1288,5.1316,5.1383,5.1408,5.1516,5.1502,5.1512,5.1548,5.1548,5.1615,5.1625,5.1653,5.1733,5.1749,5.1781,5.1739,5.1937,5.1941,5.1945,5.1947,5.1953,5.1957,0,0,0,0,0,5.1257,5.1311,5.1317,5.1336,5.1443,5.1518,5.1532,5.1563,5.155,5.1579,5.1617,5.1623,5.1767,5.1741,5.1759,5.1793,5.1936,5.194,5.1944,5.1945,5.1952,5.1957,0,0,0,0,0,0,5.1245,5.132,5.1328,5.1405,5.1455,5.1521,5.1558,5.1568,5.1622,5.162,5.1656,5.1671,5.1744,5.1776,5.1745,5.1868,5.1851,5.1859,5.1845,5.1851,5.1856,5.1847,5.1744,0,0,0,0,0,5.1251,5.1306,5.1369,5.1431,5.1456,5.1502,5.1536,5.1556,5.1609,5.163,5.1673,5.1724,5.1781,5.1818,5.1873,5.1952,5.1968,5.1985,5.199,5.1994,5.2001,5.2047,5.2056,5.1961,5.1961,5.1961,0,0,5.1265,5.1313,5.1345,5.143,5.1471,5.1527,5.152,5.1579,5.1621,5.1639,5.1712,5.1746,5.1805,5.1883,5.1919,5.1911,5.203,5.1999,5.2002,5.2007,5.2052,5.2061,5.2069,5.1964,5.1964,5.1963,0,0,5.1318,5.1359,5.1417,5.1459,5.1521,5.1553,5.1566,5.1632,5.1655,5.1729,5.1745,5.1796,5.1892,5.1935,5.1969,5.2042,5.2051,5.2059,5.2085,5.213,5.2137,5.2144,5.2172,5.2181,5.2066,5.2066,5.2066,0,5.1327,5.1412,5.1445,5.1504,5.1542,5.1562,5.1621,5.166,5.1737,5.1763,5.1754,5.1878,5.1919,5.2008,5.2026,5.2053,5.2071,5.2052,5.2134,5.2141,5.2148,5.2174,5.2185,5.2066,5.2066,5.2066,5.2066,0,5.1421,5.148,5.1519,5.1594,5.1636,5.1695,5.1738,5.1776,5.1793,5.1826,5.1903,5.1953,5.2021,5.2043,5.2059,5.2135,5.2129,5.2126,5.2109,5.2157,5.2183,5.2193,5.2068,5.2067,5.2067,5.2067,0,0,5.1469,5.1564,5.1578,5.1613,5.1685,5.1731,5.1792,5.1859,5.1892,5.1945,5.1998,5.2081,5.208,5.2119,5.214,5.218,5.2237,5.2173,5.2175,5.2184,5.2325,5.2328,5.2339,5.2243,5.2245,5.2246,5.2321,0,5.1532,5.1641,5.1673,5.1765,5.1821,5.1842,5.1895,5.1945,5.1978,5.203,5.2066,5.2125,5.2118,5.2142,5.2182,5.2221,5.2266,5.2216,5.2293,5.2295,5.2278,5.2352,5.2355,5.2423,5.2331,5.2333,5.2334,0,5.162,5.1677,5.1774,5.1841,5.1866,5.1913,5.1978,5.2028,5.2086,5.2107,5.2152,5.2171,5.2236,5.2215,5.2306,5.2272,5.2305,5.233,5.2333,5.2342,5.2318,5.2365,5.2445,5.2456,5.235,5.2349,5.2348,0,5.1648,5.1748,5.182,5.1849,5.1929,5.1962,5.1996,5.2053,5.2092,5.2149,5.2175,5.2238,5.2273,5.2322,5.2358,5.234,5.2447,5.2429,5.2467,5.2467,5.2489,5.2488,5.2577,5.2509,5.2509,5.2509,5.2508,0,5.1716,5.1775,5.1834,5.1878,5.1946,5.1983,5.2049,5.2085,5.2135,5.2188,5.2209,5.2258,5.2302,5.2357,5.2385,5.2458,5.2473,5.2492,5.2499,5.2491,5.2489,5.2514,5.2511,5.2511,5.2511,5.251,5.251,0,5.1758,5.1799,5.188,5.1949,5.1968,5.2015,5.2075,5.2119,5.2153,5.2219,5.2237,5.229,5.2356,5.2397,5.248,5.25,5.258,5.2584,5.256,5.2564,5.2601,5.2597,5.2711,5.2729,5.2647,5.2648,5.2648,0,5.1799,5.1845,5.192,5.1957,5.1993,5.2051,5.2092,5.2131,5.2172,5.2243,5.228,5.2347,5.2403,5.2508,5.2554,5.2619,5.2626,5.2662,5.2636,5.2627,5.2629,5.2626,5.2632,5.2666,5.2667,5.2667,5.2668,0,5.1868,5.1887,5.1945,5.201,5.2058,5.2111,5.2165,5.2194,5.2242,5.2287,5.2356,5.24,5.2486,5.2553,5.2622,5.2659,5.2672,5.2676,5.2688,5.2681,5.2666,5.2676,5.2574,5.2673,5.2672,5.2672,5.2672,5.2671,5.1913,5.1956,5.2016,5.208,5.2124,5.2174,5.222,5.2261,5.2318,5.2392,5.2412,5.2484,5.2543,5.2637,5.2675,5.2732,5.2727,5.2745,5.275,5.2754,5.2756,5.2656,5.2745,5.2745,5.2745,5.2745,5.2745,0,5.1985,5.2025,5.2083,5.2158,5.2209,5.2217,5.2277,5.2319,5.2383,5.2437,5.2492,5.2572,5.2638,5.2691,5.2759,5.2795,5.2803,5.2812,5.281,5.2819,5.2755,5.2739,5.2804,5.2804,5.2804,5.2804,5.2804,5.2804,5.2028,5.2102,5.2129,5.2226,5.2266,5.2337,5.2371,5.2418,5.2461,5.255,5.2605,5.2639,5.2693,5.2766,5.2827,5.2841,5.2866,5.2874,5.2889,5.2829,5.2823,5.2816,5.2801,5.2879,5.2879,5.2948,5.2948,5.2949]}]]